Regional Weather Roundup
Issued by NWS

Home | Current Version | Previous Version | Graphics & Text | Print | Product List | Glossary On
Versions: 1 2 3 4 5 6 7 8 9 10 11 12 13 14 15 16 17 18 19 20 21 22 23 24 25 26 27 28 29 30 31 32 33 34 35 36 37 38 39 40 41 42 43 44 45 46 47 48 49 50
000
ASUS43 KFSD 151902
RWRSD

WEATHER ROUNDUP FOR SOUTH DAKOTA
NATIONAL WEATHER SERVICE SIOUX FALLS SD
200 PM CDT TUE AUG 15 2017

NOTE: "FAIR" INDICATES FEW OR NO CLOUDS BELOW 12,000 FEET WITH NO
SIGNIFICANT WEATHER AND/OR OBSTRUCTIONS TO VISIBILITY.


SDZ001>005-009-010-012>017-152000-
NORTHWEST AND NORTH CENTRAL SOUTH DAKOTA

CITY           SKY/WX    TMP DP  RH WIND       PRES   REMARKS
BUFFALO          N/A     67  61  81 W6        29.81F
FAITH            N/A     72  65  78 W12       29.82F
MOBRIDGE         N/A     72  66  81 S6        29.81F
$$

SDZ012>016-024>037-041>051-057-063-072>074-152000-
SOUTHWEST AND SOUTH CENTRAL SOUTH DAKOTA

CITY           SKY/WX    TMP DP  RH WIND       PRES   REMARKS
RAPID CTY ARPT CLOUDY    70  61  73 NW8       29.86S
PIERRE         CLOUDY    76  64  66 SE10      29.81F
CUSTER         CLOUDY    66  55  67 VRB7      29.96S
ELLSWORTH AFB  CLOUDY    70  63  78 N5        29.86
PHILIP         PTSUNNY   78  66  66 S12G17    29.80F
PINE RIDGE     MOSUNNY   83  59  44 VRB5      29.84F
SPEARFISH      FAIR      63  61  94 CALM      29.93F
WINNER         MOCLDY    79  66  64 SE13      29.85R
$$

SDZ004>011-016>023-039-040-152000-
NORTHEAST SOUTH DAKOTA

CITY           SKY/WX    TMP DP  RH WIND       PRES   REMARKS
ABERDEEN       CLOUDY    73  64  73 S14G21    29.88F
WATERTOWN      CLOUDY    72  61  68 SE16G22   29.91F
BROOKINGS      PTSUNNY   72  62  71 SE15      29.91F
SISSETON         N/A     70  64  81 SE15      29.91S
$$

SDZ017-020-022-023-036>040-048>070-152000-
SOUTHEAST SOUTH DAKOTA

CITY           SKY/WX    TMP DP  RH WIND       PRES   REMARKS
SIOUX FALLS    CLOUDY    75  65  70 E13       29.89F
HURON          CLOUDY    74  63  68 SE9G22    29.86F
CHAMBERLAIN    PTSUNNY   73  68  83 E8        29.85F
MITCHELL       CLOUDY    75  64  68 E8        29.85F
YANKTON        CLOUDY    71  65  81 E12       29.87S
$$

ABBREVIATIONS USED IN REMARKS
   TC - TEMPERATURE IN CELSIUS
  WCI - WIND CHILL INDEX
   HX - HEAT INDEX
  VSB - VISIBILITY





USA.gov is the U.S. government's official web portal to all federal, state and local government web resources and services.